Regional Weather Roundup
Issued by NWS

Home | Current Version | Previous Version | Text Only | Print | Product List | Glossary Off
Versions: 1 2 3 4 5 6 7 8 9 10 11 12 13 14 15 16 17 18 19 20 21 22 23 24 25 26 27 28 29 30 31 32 33 34 35 36 37 38 39 40 41 42 43 44 45 46 47 48 49 50

000
ASUS45 KPSR 060410
RWRAZ

ARIZONA REGIONAL HOURLY WEATHER ROUNDUP
NATIONAL WEATHER SERVICE PHOENIX AZ
900 PM MST THU MAR 05 2015

NOTE: FAIR INDICATES FEW OR NO CLOUDS BELOW 12,000 FEET WITH NO
SIGNIFICANT WEATHER AND/OR OBSTRUCTIONS TO VISIBILITY.

AZZ001>003-036-060500-
NORTHWEST ARIZONA

CITY           SKY/WX    TMP DP  RH WIND       PRES   REMARKS
BULLHEAD CITY  CLEAR     63  19  19 N20       30.24S
KINGMAN        CLEAR     43  30  60 E9        30.31S
$$

AZZ004>008-015-016-018-060500-
NORTH CENTRAL ARIZONA

CITY           SKY/WX    TMP DP  RH WIND       PRES   REMARKS
GRAND CANYON   CLEAR     24  17  74 CALM      30.39S
PRESCOTT       CLEAR     42  18  37 SW6       30.32R
FLAGSTAFF      CLEAR     26  16  65 CALM      30.38R
PAYSON         CLEAR     45   9  23 NE9       30.33S
PAGE           CLEAR     44  22  41 S5        30.37S
$$

AZZ009>014-017-060500-
NORTHEAST ARIZONA

CITY           SKY/WX    TMP DP  RH WIND       PRES   REMARKS
WINSLOW        CLEAR     33  18  53 W9        30.37R WCI  25
SAINT JOHNS    CLEAR     37  11  34 S3        30.35R
WINDOW ROCK    CLEAR     30  17  58 CALM      30.39R
SHOW LOW       CLEAR     32   9  37 E6        30.39S WCI  26
$$

AZZ023-060500-
GREATER PHOENIX AREA

CITY           SKY/WX    TMP DP  RH WIND       PRES   REMARKS
PHOENIX        CLEAR     66  21  18 W5        30.16S
BUCKEYE        CLEAR     52  45  76 N6        30.18S
LUKE AFB       CLEAR     58  34  40 CALM      30.16S
DEER VALLEY    CLEAR     57  29  34 CALM      30.18R
SCOTTSDALE     CLEAR     61  30  31 NE3       30.19S
MESA-GATEWAY   CLEAR     57  30  35 E6        30.20R
CHANDLER       CLEAR     61  27  27 CALM      30.17S
$$

AZZ027-028-060500-
SOUTHWEST MARICOPA COUNTY AND PINAL COUNTY

CITY           SKY/WX    TMP DP  RH WIND       PRES   REMARKS
CASA GRANDE    CLEAR     57  25  28 N9        30.18R
GILA BEND      CLEAR     57  37  46 S3        30.16S
$$

AZZ503-504-507>509-060500-
SOUTHEAST ARIZONA

CITY           SKY/WX    TMP DP  RH WIND       PRES   REMARKS
TUCSON         CLEAR     60  18  19 E12       30.22R
DAVIS-MONTHAN  CLEAR     58  19  22 NE15G24   30.20R
NOGALES        CLEAR     48  22  35 N8        30.20S
SIERRA VISTA   CLEAR     45  25  45 SE13      30.25S
DOUGLAS        CLEAR     48  25  40 E15       30.27R
SAFFORD        CLEAR     51  20  29 E9        30.29R
$$

AZZ020-021-025-026-031-060500-
SOUTHWEST ARIZONA

CITY           SKY/WX    TMP DP  RH WIND       PRES   REMARKS
YUMA           CLEAR     65  28  24 N6        30.16R
$$

CAZ031-033-041-043-047-048-061-060500-
SOUTHERN CALIFORNIA

CITY           SKY/WX    TMP DP  RH WIND       PRES   REMARKS
DOWNTOWN L.A.  CLEAR     64  29  26 CALM      30.16F
L.A. AIRPORT   CLEAR     61  43  51 W8        30.17S
SAN DIEGO      CLEAR     65  26  23 N8        30.17R
BURBANK        CLEAR     60  30  32 CALM      30.17F
ONTARIO        CLEAR     62  30  29 CALM      30.18R
RIVERSIDE      CLEAR     65  14  14 E3        30.19R
PALM SPRINGS   CLEAR     67  21  17 NW6       30.23R
EL CENTRO NAS  CLEAR     61  29  29 SW5       30.18R
IMPERIAL       CLEAR     59  33  37 W5        30.17S
BLYTHE         CLEAR     59  39  47 N7        30.19S
NEEDLES        CLEAR     62  23  22 N10       30.24R
$$

NVZ020-UTZ003-060500-
SOUTHERN NEVADA-UTAH

CITY           SKY/WX    TMP DP  RH WIND       PRES   REMARKS
LAS VEGAS      CLEAR     59  24  26 S6        30.28R
SALT LAKE CITY PTCLDY    38  22  52 SE9       30.42R WCI  31
$$

NMZ009-TXZ055-060500-
NEW MEXICO-WEST TEXAS

CITY           SKY/WX    TMP DP  RH WIND       PRES   REMARKS
ALBUQUERQUE    CLEAR     44  11  26 NW8       30.37R
EL PASO        CLEAR     42  22  44 SE5       30.37R
$$


........................KEY........................
SKY/WX - SKY CONDITION/WEATHER
TMP    - TEMPERATURE IN FAHRENHEIT
DP     - DEW POINT IN FAHRENHEIT
RH     - RELATIVE HUMIDITY IN PERCENT
WIND   - DIRECTION AND SPEED IN MILES PER HOUR (MPH)
VRB    - VARIABLE WIND DIRECTION
PRES   - MEAN SEA LEVEL PRESSURE IN INCHES OF MERCURY
         F - FALLING PRESSURE   R - RISING PRESSURE
         S - STEADY PRESSURE
VSB    - VISIBILITY IN MILES
HX     - HEAT INDEX IN FAHRENHEIT
WCI    - WIND CHILL INDEX IN FAHRENHEIT
TC     - TEMPERATURE IN CELSIUS WHICH IS ALSO KNOWN AS
         TEMPERATURE IN CENTIGRADE
AFB    - AIR FORCE BASE
         LUKE AFB IS LUKE AIR FORCE BASE
         DAVIS-MONTHAN IS DAVIS-MONTHAN AIR FORCE BASE
NAS    - NAVAL AIR STATION
         EL CENTRO NAS IS EL CENTRO NAVAL AIR STATION
N/A    - NOT AVAILABLE



USA.gov is the U.S. government's official web portal to all federal, state and local government web resources and services.